Location: Berg
(47.2344°N, 9.5296°E)
Time: 11:48:54
(UTC+00:00)

Envisat - Pass Details

Date: 24 September 2021
Orbit: 764 x 766 km, 98.2° (Epoch: 20 October)

Event Time Altitude Azimuth Distance (km) Brightness Sun altitude
Rises 02:55:01 0° 35° (NE) 3,241 7.2 -23.2°
Reaches altitude 10° 03:00:05 10° 78° (ENE) 2,305 6.5 -22.4°
Maximum altitude 03:00:37 10° 85° (E) 2,294 6.4 -22.3°
Drops below altitude 10° 03:01:10 10° 91° (E) 2,303 6.4 -22.2°
Sets 03:06:10 0° 135° (SE) 3,220 6.5 -21.5°
